Location: Newark
(47.1042°N, 8.6744°E)
Time: 20:54:58
(UTC+00:00)

N. Korean satellite - Visible Passes

Search period start: 13 October 2019 00:00
Search period end: 23 October 2019 00:00
Orbit: 455 x 508 km, 97.2° (Epoch: 13 October)

Date Brightness Start Highest point End Pass type
(mag) Time Alt. Az. Time Alt. Az. Time Alt. Az.
13 Oct 9.5 04:39:17 10° NE 04:42:06 22° E 04:44:56 10° SSE visible
14 Oct 10.3 04:15:21 10° ENE 04:16:37 11° E 04:17:53 10° ESE visible
15 Oct 10.1 17:35:00 10° SW 17:36:51 14° W 17:38:44 10° WNW visible
16 Oct 8.6 04:56:25 10° NNE 04:59:44 34° E 05:03:03 10° SSE visible
16 Oct 9.1 17:08:26 10° SSW 17:11:23 27° W 17:14:21 10° NW visible
17 Oct 9.8 04:31:44 10° NE 04:34:18 18° E 04:36:52 10° SE visible
19 Oct 7.4 05:13:43 10° NNE 05:17:16 58° E 05:20:53 10° S visible
19 Oct 9.9 17:26:40 10° SW 17:28:59 17° W 17:31:19 10° NW visible
20 Oct 9.0 04:48:43 10° NE 04:51:54 29° E 04:55:06 10° SSE visible
20 Oct 8.6 17:00:23 10° SSW 17:03:31 33° W 17:06:41 10° NNW visible
21 Oct 10.1 04:24:12 10° NE 04:26:26 15° E 04:28:40 10° SE visible
22 Oct 10.5 17:45:45 10° WSW 17:46:37 11° W 17:47:28 10° WNW visible
